[[{"header":{"parameterUnit":"m.s-1","parameterCategory":1,"la1":30.2991,"la2":30.254,"lo1":-89.0895,"lo2":-89.0444,"dy":0.0017,"dx":0.0017,"nx":28,"ny":28,"refTime":"2023-09-06T03:00:00:Z","depth":0,"parameterNumber":2,"parameterNumberName":"U-component_of_WINDS"},"data":[0,0,0,0,0,0,0,0,0,0,0,0,0,0,0,0,0,0,0,0,0,0,0,0,0,0,0,0,0,0,0,0,0,0,0,0,0,0,0,0,0,0,0,0,0,0,0,0,0,0,0,0,0,0,0,0,0,0,-0.4657,-0.4656,0,-0.463,-0.463,-0.4629,-0.46,-0.4599,-0.4599,-0.4598,-0.4572,-0.4572,-0.4571,0,0,0,0,0,0,0,0,0,0,0,0,0,-0.4684,-0.4684,-0.4657,-0.4656,-0.4656,-0.463,-0.463,-0.4629,-0.46,-0.4599,-0.4599,-0.4598,-0.4572,-0.4572,-0.4571,0,0,0,0,0,0,0,0,0,0,0,0,0,-0.4666,-0.4684,-0.4657,-0.4638,-0.4636,-0.463,-0.463,-0.4629,-0.46,-0.4599,-0.4599,-0.4598,-0.4572,-0.4572,-0.4571,-0.4581,0,0,-0.457,-0.457,0,0,0,0,0,0,0,0,-0.4667,-0.4665,-0.4641,-0.464,-0.4637,-0.4617,-0.4629,-0.4613,-0.46,-0.4614,-0.4598,-0.4598,-0.4588,-0.4586,-0.4582,-0.458,-0.4579,-0.457,-0.4569,-0.4569,-0.4569,0,0,0,0,0,0,0,-0.4669,-0.4666,-0.4646,-0.4641,-0.4639,-0.4632,-0.4629,-0.4626,-0.4605,-0.4613,-0.461,-0.4608,-0.4586,-0.4583,-0.4581,-0.4578,-0.457,-0.4569,-0.4569,-0.4569,-0.4584,-0.4585,0,0,0,0,0,0,-0.4673,-0.4668,-0.4647,-0.4645,-0.4651,-0.4632,-0.4628,-0.4625,-0.4605,-0.4601,-0.4608,-0.4606,-0.4584,-0.4582,-0.458,-0.4591,-0.4569,-0.4569,-0.4569,-0.4583,-0.4584,-0.4585,0,0,0,0,0,0,-0.4673,-0.4671,-0.4648,-0.4656,-0.4652,-0.4632,-0.4628,-0.4624,-0.4621,-0.4601,-0.4597,-0.4608,-0.4583,-0.4581,-0.4581,-0.459,-0.4569,-0.4568,-0.4582,-0.4584,-0.4584,-0.4613,0,0,0,0,0,0,-0.4674,-0.4671,-0.4675,-0.4656,-0.4652,-0.4649,-0.4629,-0.4624,-0.462,-0.4617,-0.46,-0.4597,-0.4583,-0.4582,-0.4581,-0.4589,-0.4568,-0.4582,-0.4583,-0.4584,-0.4612,-0.4615,-0.4618,0,0,0,0,0,-0.4675,-0.4684,-0.4675,-0.4673,-0.4656,-0.465,-0.4648,-0.4631,-0.4621,-0.4624,-0.4612,-0.4597,-0.4589,-0.4583,-0.4581,-0.4589,-0.4581,-0.4583,-0.4584,-0.461,-0.4615,-0.4618,0,0,0,0,0,0,-0.4704,-0.4681,-0.4671,-0.4674,-0.4664,-0.4645,-0.4649,-0.4636,-0.4629,-0.4627,-0.4606,-0.4603,-0.4606,-0.4597,-0.459,-0.4598,-0.4583,-0.4584,-0.4604,-0.4608,-0.4611,-0.4613,-0.4567,0,0,0,0,0,-0.4711,-0.4708,-0.4688,-0.4692,-0.4688,-0.4669,-0.4666,-0.4654,-0.4643,-0.4639,-0.4626,-0.4617,-0.4612,-0.4609,-0.4604,-0.461,-0.4606,-0.4615,-0.4618,-0.4621,-0.4623,-0.4626,-0.463,-0.459,-0.459,-0.459,0,0,-0.4725,-0.4712,-0.4711,-0.4698,-0.4689,-0.4686,-0.4666,-0.4664,-0.4662,-0.4638,-0.4638,-0.4629,-0.4617,-0.462,-0.4621,-0.4613,-0.4633,-0.4623,-0.4626,-0.4626,-0.4628,-0.4632,-0.4636,-0.4591,-0.4591,-0.4591,0,0,-0.4749,-0.4739,-0.4742,-0.4733,-0.4719,-0.4707,-0.4708,-0.469,-0.4683,-0.4683,-0.4665,-0.4663,-0.4655,-0.4647,-0.4642,-0.4664,-0.4651,-0.4663,-0.4681,-0.4685,-0.4688,-0.4691,-0.4699,-0.4703,-0.4664,-0.4664,-0.4665,0,-0.4768,-0.4764,-0.4745,-0.4744,-0.4739,-0.4717,-0.4721,-0.4713,-0.4699,-0.4696,-0.4687,-0.4677,-0.4668,-0.467,-0.4675,-0.4671,-0.4672,-0.4665,-0.4689,-0.4692,-0.4694,-0.4702,-0.4705,-0.4666,-0.4666,-0.4666,-0.4666,0,-0.4788,-0.4785,-0.4789,-0.4776,-0.4771,-0.4773,-0.4755,-0.4752,-0.4741,-0.4729,-0.4729,-0.4717,-0.4709,-0.4708,-0.4697,-0.4709,-0.4705,-0.4693,-0.4677,-0.47,-0.4707,-0.471,-0.4668,-0.4668,-0.4667,-0.4667,0,0,-0.4831,-0.4806,-0.4808,-0.4802,-0.4786,-0.4783,-0.4784,-0.4776,-0.4775,-0.4766,-0.4766,-0.476,-0.4749,-0.4744,-0.4731,-0.4735,-0.4754,-0.4722,-0.4722,-0.4729,-0.4767,-0.4777,-0.4781,-0.4745,-0.4745,-0.4746,-0.4769,0,-0.4853,-0.4852,-0.4835,-0.4839,-0.4837,-0.4816,-0.4817,-0.4807,-0.4797,-0.4794,-0.4782,-0.4779,-0.4764,-0.4761,-0.4763,-0.4751,-0.4761,-0.4749,-0.4746,-0.4746,-0.475,-0.4784,-0.4794,-0.4817,-0.4771,-0.4772,-0.4772,0,-0.4878,-0.487,-0.4875,-0.4858,-0.4857,-0.4858,-0.4849,-0.4846,-0.4835,-0.4827,-0.4821,-0.4807,-0.4807,-0.4792,-0.4793,-0.4785,-0.4783,-0.4777,-0.4777,-0.4777,-0.4761,-0.4786,-0.4823,-0.4827,-0.4776,-0.4776,-0.4776,0,-0.491,-0.49,-0.4902,-0.4897,-0.4878,-0.4879,-0.4871,-0.4859,-0.4856,-0.4849,-0.4846,-0.4839,-0.4836,-0.4831,-0.4815,-0.4806,-0.4818,-0.4802,-0.4812,-0.4813,-0.4816,-0.4816,-0.4855,-0.4814,-0.4813,-0.4813,-0.4813,0,-0.4937,-0.494,-0.4915,-0.4917,-0.492,-0.4901,-0.4905,-0.4895,-0.4885,-0.4884,-0.4866,-0.4866,-0.4845,-0.4843,-0.483,-0.4833,-0.4831,-0.4826,-0.4823,-0.4828,-0.4829,-0.4827,-0.4825,-0.4814,-0.4814,-0.4814,-0.4814,0,-0.4973,-0.4956,-0.4957,-0.4938,-0.4934,-0.4938,-0.4922,-0.4923,-0.4911,-0.491,-0.4909,-0.4891,-0.4887,-0.4871,-0.4864,-0.4856,-0.4863,-0.4856,-0.4867,-0.4865,-0.4877,-0.4876,-0.4916,-0.492,-0.4876,-0.4876,-0.4876,0,-0.4992,-0.4994,-0.4976,-0.4974,-0.4967,-0.4964,-0.496,-0.4941,-0.4938,-0.4926,-0.4928,-0.4923,-0.4917,-0.4913,-0.4899,-0.4894,-0.4887,-0.4901,-0.4886,-0.4892,-0.4889,-0.4889,-0.489,-0.4905,-0.4906,-0.4906,-0.4906,0,-0.5027,-0.5019,-0.5014,-0.5006,-0.5002,-0.4995,-0.4987,-0.4986,-0.4966,-0.4963,-0.4959,-0.4955,-0.4947,-0.4943,-0.4935,-0.4927,-0.4914,-0.4911,-0.4913,-0.4919,-0.4926,-0.4923,-0.4877,-0.4911,-0.491,-0.491,-0.491,-0.4909,-0.5056,-0.5057,-0.5045,-0.504,-0.5032,-0.5025,-0.5024,-0.5013,-0.5009,-0.5001,-0.499,-0.4987,-0.4977,-0.4965,-0.4958,-0.4957,-0.4949,-0.4952,-0.4953,-0.4954,-0.4957,-0.4925,-0.4955,-0.4955,-0.4955,-0.4954,-0.4954,0,-0.5091,-0.5082,-0.5078,-0.5067,-0.5063,-0.505,-0.5041,-0.5039,-0.5037,-0.5027,-0.5023,-0.5018,-0.5014,-0.5,-0.4994,-0.4995,-0.4989,-0.4995,-0.4995,-0.4994,-0.4964,-0.4963,-0.5,-0.5,-0.5,-0.5,-0.5,-0.5,-0.5109,-0.5111,-0.5101,-0.5099,-0.509,-0.5087,-0.5083,-0.5076,-0.5069,-0.5065,-0.5061,-0.5052,-0.5041,-0.5034,-0.503,-0.5026,-0.5025,-0.5033,-0.5027,-0.5,-0.4995,-0.4991,-0.499,-0.5032,-0.5032,-0.5057,-0.5057,-0.5057]},{"header":{"parameterUnit":"m.s-1","parameterCategory":1,"la1":30.2991,"la2":30.254,"lo1":-89.0895,"lo2":-89.0444,"dy":0.0017,"dx":0.0017,"nx":28,"ny":28,"refTime":"2023-09-06T03:00:00:Z","depth":0,"parameterNumber":3,"parameterNumberName":"V-component_of_WINDS"},"data":[0,0,0,0,0,0,0,0,0,0,0,0,0,0,0,0,0,0,0,0,0,0,0,0,0,0,0,0,0,0,0,0,0,0,0,0,0,0,0,0,0,0,0,0,0,0,0,0,0,0,0,0,0,0,0,0,0,0,2.4585,2.4585,0,2.4601,2.4601,2.4601,2.4637,2.4637,2.4638,2.4639,2.4653,2.4653,2.4652,0,0,0,0,0,0,0,0,0,0,0,0,0,2.4583,2.4583,2.4585,2.4585,2.4585,2.4601,2.4601,2.4601,2.4636,2.4637,2.4638,2.4639,2.4653,2.4653,2.4652,0,0,0,0,0,0,0,0,0,0,0,0,0,2.459,2.4583,2.4585,2.4605,2.4606,2.4601,2.4601,2.4601,2.4636,2.4637,2.4638,2.4639,2.4653,2.4653,2.4652,2.4628,0,0,2.4651,2.4651,0,0,0,0,0,0,0,0,2.4589,2.459,2.4601,2.4603,2.4605,2.4618,2.4606,2.461,2.4636,2.4625,2.4639,2.464,2.464,2.4641,2.4642,2.4628,2.4629,2.4651,2.4651,2.4651,2.465,0,0,0,0,0,0,0,2.4589,2.4589,2.4591,2.4602,2.4604,2.4612,2.4614,2.4607,2.4626,2.4626,2.4629,2.463,2.4642,2.4642,2.4642,2.4629,2.4651,2.4651,2.465,2.465,2.4597,2.4596,0,0,0,0,0,0,2.4586,2.4589,2.459,2.4591,2.46,2.4611,2.4614,2.4613,2.4626,2.463,2.4629,2.4632,2.4642,2.4643,2.4643,2.4615,2.4651,2.465,2.465,2.4599,2.4597,2.4596,0,0,0,0,0,0,2.4586,2.4586,2.459,2.4591,2.4592,2.461,2.4609,2.4612,2.4613,2.4629,2.4632,2.4626,2.4643,2.4643,2.4632,2.4616,2.465,2.465,2.46,2.4598,2.4597,2.4559,0,0,0,0,0,0,2.4585,2.4585,2.4576,2.459,2.4592,2.4578,2.4608,2.4612,2.4612,2.4616,2.4627,2.463,2.4644,2.4632,2.4631,2.4616,2.4649,2.4601,2.4599,2.4597,2.4562,2.4556,2.4551,0,0,0,0,0,2.4585,2.4564,2.4576,2.4576,2.4581,2.4577,2.4578,2.4596,2.4611,2.4602,2.4612,2.4629,2.4618,2.463,2.463,2.4614,2.4602,2.46,2.4597,2.4564,2.4557,2.4552,0,0,0,0,0,0,2.4547,2.4567,2.4579,2.4563,2.4568,2.4583,2.4572,2.4588,2.4589,2.4592,2.4613,2.4615,2.46,2.4606,2.462,2.4591,2.4613,2.461,2.4588,2.4582,2.4577,2.4575,2.4649,0,0,0,0,0,2.4537,2.4533,2.455,2.4534,2.4536,2.4554,2.4553,2.4566,2.4572,2.4575,2.4584,2.4589,2.4587,2.4585,2.4584,2.4563,2.4566,2.4552,2.4547,2.4543,2.454,2.453,2.4524,2.4588,2.4588,2.4588,0,0,2.4515,2.4526,2.4522,2.4526,2.4532,2.4527,2.4555,2.4549,2.4545,2.4573,2.4563,2.457,2.4577,2.4561,2.4554,2.4565,2.4523,2.454,2.4536,2.4535,2.4526,2.452,2.4515,2.4586,2.4586,2.4586,0,0,2.4474,2.4481,2.4469,2.4474,2.4483,2.4495,2.4492,2.4506,2.4512,2.4502,2.4523,2.4519,2.4515,2.4519,2.452,2.4482,2.4497,2.4481,2.4454,2.4443,2.4438,2.4434,2.442,2.4414,2.4478,2.4478,2.4478,0,2.4445,2.4439,2.446,2.4452,2.4453,2.448,2.4467,2.4472,2.4479,2.4479,2.4492,2.4488,2.4494,2.448,2.447,2.4471,2.4468,2.4479,2.4438,2.4433,2.443,2.4416,2.4411,2.4476,2.4476,2.4476,2.4476,0,2.4404,2.4399,2.4388,2.4396,2.4396,2.4386,2.4404,2.4402,2.4416,2.4426,2.4416,2.4425,2.4427,2.4424,2.4437,2.4411,2.4418,2.4434,2.4456,2.4421,2.4409,2.4404,2.4473,2.4473,2.4474,2.4475,0,0,2.4337,2.4358,2.4353,2.4357,2.4369,2.4366,2.4357,2.4359,2.4357,2.4362,2.4354,2.4351,2.4366,2.4367,2.4381,2.4372,2.4341,2.4389,2.439,2.4379,2.4313,2.43,2.4294,2.4352,2.4351,2.435,2.4312,0,2.4297,2.4284,2.4302,2.4284,2.428,2.4306,2.4298,2.4305,2.4315,2.4313,2.4324,2.4321,2.4341,2.4343,2.4335,2.4346,2.4327,2.4349,2.4344,2.4344,2.4341,2.4287,2.4274,2.4237,2.4307,2.4307,2.4306,0,2.4249,2.4252,2.4234,2.4248,2.4247,2.424,2.4244,2.4241,2.425,2.4258,2.426,2.4277,2.4269,2.4291,2.4281,2.4295,2.4294,2.43,2.4299,2.4298,2.4322,2.4284,2.4226,2.422,2.4299,2.4299,2.43,0,2.4201,2.4201,2.419,2.4193,2.421,2.4204,2.421,2.422,2.422,2.4224,2.4224,2.4226,2.4227,2.4228,2.4245,2.426,2.4232,2.4255,2.4238,2.4237,2.4229,2.4229,2.4169,2.423,2.4231,2.4231,2.4231,0,2.4154,2.4142,2.4169,2.4162,2.4149,2.4171,2.4157,2.4167,2.4175,2.417,2.4193,2.4188,2.4211,2.4208,2.4222,2.421,2.4211,2.4217,2.422,2.4214,2.4213,2.4213,2.4216,2.4229,2.423,2.423,2.423,0,2.4098,2.4116,2.4106,2.4123,2.4127,2.4116,2.4131,2.4125,2.4137,2.4131,2.4131,2.415,2.4148,2.4165,2.4167,2.4176,2.4158,2.4166,2.4155,2.4157,2.4138,2.4139,2.4075,2.4067,2.4134,2.4134,2.4133,0,2.4066,2.4058,2.4074,2.4073,2.4078,2.4076,2.4077,2.4099,2.4098,2.4108,2.4101,2.4101,2.4102,2.4098,2.4112,2.4113,2.4121,2.4098,2.4121,2.4115,2.412,2.412,2.4119,2.4093,2.4092,2.4091,2.4091,0,2.4008,2.4018,2.4018,2.4022,2.4022,2.4026,2.4031,2.4029,2.4053,2.4051,2.405,2.4051,2.4053,2.4053,2.4057,2.4064,2.4081,2.4084,2.408,2.4073,2.4066,2.4069,2.4141,2.4085,2.4085,2.4086,2.4086,2.4086,2.3963,2.3956,2.3967,2.3967,2.3973,2.3978,2.3974,2.3986,2.3986,2.3989,2.4002,2.3999,2.4008,2.4015,2.4021,2.4018,2.4029,2.4023,2.4021,2.4019,2.4015,2.4068,2.4019,2.4019,2.4019,2.4019,2.402,0,2.3905,2.3914,2.3914,2.3921,2.3921,2.3938,2.3945,2.3944,2.3941,2.3948,2.395,2.3948,2.3949,2.3963,2.3965,2.396,2.3968,2.396,2.396,2.3961,2.4006,2.4009,2.3953,2.3953,2.3953,2.3953,2.3953,2.3953,2.3875,2.3865,2.3876,2.3869,2.3878,2.3875,2.3878,2.3882,2.3888,2.3886,2.3887,2.3897,2.3907,2.391,2.3911,2.3915,2.3915,2.3903,2.391,2.3951,2.3958,2.3964,2.3967,2.3903,2.3903,2.3866,2.3865,2.3865]}]]